sat.trackr.live / text

‹ back to catalog

STARLINK-1736

NORAD 46585 · 2020-070BF

PAYLOAD ACTIVE UNKNOWN

§ Identity

Operator
Country
US
Launch date
2020-10-06
Launch site
AFETR
Launch vehicle
Mass (kg)
RCS (m²)

Purposes: comms

External: N2YO · Heavens-Above · Gunter

§ Orbital elements

Epoch: 2026-06-15T17:26:33.379008Z

Period
87.58 min
Inclination
53.0176°
Eccentricity
0.0009240
Mean motion
16.44221652 rev/d
Perigee alt
148.6 km
Apogee alt
160.6 km
Semi-major
6,532.7 km
B*
3.4518e-4
RAAN
341.7037°
Arg perigee
289.1749°
Mean anomaly
70.8299°
Rev number
31,588

§ Raw data

STARLINK-17361 46585U 20070BF  26166.72677522  .11013613  12531-4  34518-3 0  99922 46585  53.0176 341.7037 0009240 289.1749  70.8299 16.44221652315885

JSON: /api/v1/satellites/46585 · /tle

For live sub-satellite position, see the globe view (requires WebGL).

§ Visibility from observer

Set your observer location to see the next 7 days of passes ≥ 10°. The values pass through the URL so the page stays shareable.

No JS? Fill the form by hand. The geolocation button needs JavaScript.